Location: Ferques
(50.8300°N, 1.7599°E)
Time: 15:24:49
(UTC+00:00)

CZ-4C R/B - Pass Details

Date: 19 May 2025
Orbit: 501 x 1483 km, 63.4° (Epoch: 17 June)

Event Time Altitude Azimuth Distance (km) Brightness Sun altitude
Rises 21:15:10 0° 312° (NW) 3,810 7.5 -11.5°
Reaches altitude 10° 21:17:54 10° 302° (WNW) 2,997 6.2 -11.8°
Maximum altitude 21:24:10 31° 244° (WSW) 2,066 4.3 -12.3°
Drops below altitude 10° 21:31:27 10° 187° (S) 3,502 4.9 -13.0°
Enters shadow 21:32:24 - 184° (S) 3,783 5.1 -13.0°
